This demonstration page uses our WeatherBlox Daily Observations layout. Learn more.

Left ArrowRight Arrow

Hourly Observations for December 26, 2020

Temp ( °F °C ) Dew Point ( °F °C ) Humidity (%) Winds ( mph kmh ) Pressure ( in mb ) Visibility ( mi km ) Precip ( " mm )
12:53 am 00:53 Clear 13 -10.6 5 -15 70 70 VRB 7 11 30.12 1020 10 16 0.00 0.00
1:53 am 01:53 Clear 13 -10.6 5 -15 70 70 SW 6 9 30.09 1019 10 16 0.00 0.00
2:53 am 02:53 Cloudy 15 -9.4 6 -14.4 67 67 SW 7 11 30.09 1019 10 16 0.00 0.00
3:53 am 03:53 Cloudy 16 -8.9 6 -14.4 65 65 SW 7 11 30.10 1019 10 16 0.00 0.00
4:53 am 04:53 Cloudy 17 -8.3 7 -13.9 64 64 VRB 7 11 30.08 1019 10 16 0.00 0.00
5:53 am 05:53 Cloudy 17 -8.3 7 -13.9 64 64 VRB 6 9 30.07 1018 10 16 0.00 0.00
6:53 am 06:53 Mostly Clear 16 -8.9 7 -13.9 67 67 VRB 6 9 30.07 1018 10 16 0.00 0.00
7:53 am 07:53 Clear 15 -9.4 7 -13.9 70 70 SSW 5 7 30.08 1019 10 16 0.00 0.00
8:53 am 08:53 Sunny 17 -8.3 8 -13.3 68 68 SSW 6 9 30.08 1019 10 16 0.00 0.00
9:53 am 09:53 Sunny 21 -6.1 9 -12.8 59 59 WSW 6 9 30.10 1019 10 16 0.00 0.00
10:53 am 10:53 Sunny 25 -3.9 10 -12.2 53 53 WSW 9 15 30.09 1019 10 16 0.00 0.00
11:53 am 11:53 Sunny 28 -2.2 12 -11.1 51 51 SW 8 13 30.06 1018 10 16 0.00 0.00
12:53 pm 12:53 Sunny 32 0 15 -9.4 50 50 WSW 9 15 30.04 1017 10 16 0.00 0.00
1:53 pm 13:53 Sunny 36 2.2 16 -8.9 44 44 W 9 15 30.03 1017 10 16 0.00 0.00
2:53 pm 14:53 Sunny 38 3.3 18 -7.8 44 44 W 9 15 30.03 1017 10 16 0.00 0.00
3:53 pm 15:53 Sunny 38 3.3 18 -7.8 44 44 W 8 13 30.03 1017 10 16 0.00 0.00
4:53 pm 16:53 Sunny 35 1.7 19 -7.2 52 52 WSW 6 9 30.03 1017 10 16 0.00 0.00
5:53 pm 17:53 Clear 27 -2.8 18 -7.8 69 69 Calm 30.04 1017 10 16 0.00 0.00
6:53 pm 18:53 Clear 24 -4.4 18 -7.8 77 77 Calm 30.07 1018 10 16 0.00 0.00
7:53 pm 19:53 Clear 21 -6.1 17 -8.3 85 85 Calm 30.08 1019 10 16 0.00 0.00
8:53 pm 20:53 Clear 20 -6.7 17 -8.3 89 89 Calm 30.09 1019 10 16 0.00 0.00
9:53 pm 21:53 Clear 18 -7.8 15 -9.4 88 88 Calm 30.09 1019 10 16 0.00 0.00
10:53 pm 22:53 Clear 18 -7.8 15 -9.4 88 88 Calm 30.08 1019 10 16 0.00 0.00
11:53 pm 23:53 Clear 17 -8.3 14 -10 88 88 Calm 30.08 1019 10 16 0.00 0.00

Powered by AerisWeather